,,,PA_Meas_PMT16A,,PR_Meas_QMR101_102,,RH_Meas_QMH101,,SR_Meas_QMS101,,TA_Meas_QMH101,,GenWind,,GenWind,
date,time,status,PA,status,PR,status,RH,status,SR,status,TA,status,DirAvg,status,SpdAvg,
2009-12-29, 00:00:05,VALID,1002.53,VALID,0,VALID,95.8874,VALID,0,VALID,24.4822,VALID,355,VALID,0.333203,
2009-12-29, 00:01:05,VALID,1002.49,VALID,0,VALID,95.895,VALID,0,VALID,24.4609,VALID,355,VALID,0,
2009-12-29, 00:02:05,VALID,1002.46,VALID,0,VALID,95.9027,VALID,0,VALID,24.4822,VALID,355,VALID,0,
2009-12-29, 00:03:05,VALID,1002.43,VALID,0,VALID,95.8798,VALID,0,VALID,24.4609,VALID,355,VALID,0,
2009-12-29, 00:04:04,VALID,1002.42,VALID,0,VALID,95.8874,VALID,0,VALID,24.5212,VALID,355,VALID,0,
2009-12-29, 00:05:04,VALID,1002.41,VALID,0,VALID,95.895,VALID,0,VALID,24.523,VALID,355,VALID,0,
2009-12-29, 00:06:04,VALID,1002.41,VALID,0,VALID,95.9027,VALID,0,VALID,24.5601,VALID,355,VALID,0,
2009-12-29, 00:07:04,VALID,1002.42,VALID,0,VALID,95.9027,VALID,0,VALID,24.599,VALID,355,VALID,0,
2009-12-29, 00:08:04,VALID,1002.45,VALID,0,VALID,95.8798,VALID,0,VALID,24.6009,VALID,355,VALID,0,
2009-12-29, 00:09:04,VALID,1002.43,VALID,0,VALID,95.895,VALID,0,VALID,24.5796,VALID,355,VALID,0,
2009-12-29, 00:10:04,VALID,1002.45,VALID,0,VALID,95.895,VALID,0,VALID,24.5796,VALID,355,VALID,0,
2009-12-29, 00:11:04,VALID,1002.43,VALID,0,VALID,95.8798,VALID,0,VALID,24.599,VALID,355,VALID,0,
2009-12-29, 00:12:04,VALID,1002.42,VALID,0,VALID,95.8798,VALID,0,VALID,24.638,VALID,355,VALID,0,
2009-12-29, 00:13:04,VALID,1002.42,VALID,0,VALID,95.8569,VALID,0,VALID,24.6361,VALID,355,VALID,0,
2009-12-29, 00:14:04,VALID,1002.4,VALID,0,VALID,95.8569,VALID,0.100563,VALID,24.6732,VALID,355,VALID,0,
2009-12-29, 00:15:04,VALID,1002.5,VALID,0,VALID,95.8569,VALID,0.100563,VALID,24.714,VALID,284,VALID,1.2207,
2009-12-29, 00:16:04,VALID,1002.5,VALID,0,VALID,95.8645,VALID,0.100563,VALID,24.7724,VALID,288,VALID,1.55586,
2009-12-29, 00:17:04,VALID,1002.49,VALID,0,VALID,95.8493,VALID,0.100563,VALID,24.7121,VALID,312,VALID,2.04219,
2009-12-29, 00:18:04,VALID,1002.48,VALID,0,VALID,95.8721,VALID,0,VALID,24.6945,VALID,287,VALID,1.8,
2009-12-29, 00:19:04,VALID,1002.47,VALID,0,VALID,95.8493,VALID,0.100563,VALID,24.714,VALID,294,VALID,1.31836,
2009-12-29, 00:20:04,VALID,1002.47,VALID,0,VALID,95.834,VALID,0,VALID,24.7529,VALID,344,VALID,0.714844,
2009-12-29, 00:21:04,VALID,1002.44,VALID,0,VALID,95.8416,VALID,0,VALID,24.7335,VALID,305,VALID,1.19961,
2009-12-29, 00:22:04,VALID,1002.41,VALID,0,VALID,95.8645,VALID,0,VALID,24.714,VALID,319,VALID,0.824219,
2009-12-29, 00:23:04,VALID,1002.41,VALID,0,VALID,95.8416,VALID,0,VALID,24.7335,VALID,293,VALID,1.08672,
2009-12-29, 00:24:04,VALID,1002.38,VALID,0,VALID,95.8416,VALID,0.100563,VALID,24.7529,VALID,308,VALID,1.00234,
2009-12-29, 00:25:04,VALID,1002.38,VALID,0,VALID,95.8264,VALID,0,VALID,24.714,VALID,295,VALID,1.64688,
2009-12-29, 00:26:04,VALID,1002.42,VALID,0,VALID,95.8035,VALID,0,VALID,24.7335,VALID,293,VALID,1.71719,
2009-12-29, 00:27:04,VALID,1002.42,VALID,0,VALID,95.7959,VALID,0,VALID,24.7529,VALID,291,VALID,1.44883,
2009-12-29, 00:28:04,VALID,1002.42,VALID,0,VALID,95.7653,VALID,0.100563,VALID,24.7919,VALID,354,VALID,0.746484,
2009-12-29, 00:29:04,VALID,1002.42,VALID,0,VALID,95.7577,VALID,0,VALID,24.7919,VALID,309,VALID,0.934766,
2009-12-29, 00:30:04,VALID,1002.42,VALID,0,VALID,95.7348,VALID,0,VALID,24.7335,VALID,334,VALID,1.7082,
2009-12-29, 00:31:04,VALID,1002.42,VALID,0,VALID,95.7119,VALID,0.100563,VALID,24.6556,VALID,292,VALID,1.39023,
2009-12-29, 00:32:04,VALID,1002.4,VALID,0,VALID,95.6814,VALID,0,VALID,24.6556,VALID,314,VALID,0.942969,
2009-12-29, 00:33:04,VALID,1002.37,VALID,0,VALID,95.6433,VALID,0,VALID,24.6361,VALID,339,VALID,0.466016,
2009-12-29, 00:34:04,VALID,1002.35,VALID,0,VALID,95.6128,VALID,0,VALID,24.5777,VALID,356,VALID,1.65664,
2009-12-29, 00:35:04,VALID,1002.37,VALID,0,VALID,95.5517,VALID,0,VALID,24.5388,VALID,344,VALID,0.401563,
2009-12-29, 00:36:04,VALID,1002.37,VALID,0,VALID,95.506,VALID,0.100563,VALID,24.5388,VALID,291,VALID,0.771094,
2009-12-29, 00:37:04,VALID,1002.35,VALID,0.5,VALID,95.4754,VALID,0,VALID,24.4998,VALID,281,VALID,0.148047,
2009-12-29, 00:38:04,VALID,1002.34,VALID,0,VALID,95.4373,VALID,0,VALID,24.4804,VALID,281,VALID,0.559766,
2009-12-29, 00:39:04,VALID,1002.37,VALID,0,VALID,95.361,VALID,0,VALID,24.4414,VALID,47,VALID,0.460938,
2009-12-29, 00:40:04,VALID,1002.37,VALID,0,VALID,95.3229,VALID,0,VALID,24.422,VALID,52,VALID,0.0699219,
2009-12-29, 00:41:04,VALID,1002.35,VALID,0,VALID,95.2695,VALID,0,VALID,24.4238,VALID,52,VALID,0,
2009-12-29, 00:42:04,VALID,1002.33,VALID,0,VALID,95.2008,VALID,0,VALID,24.3636,VALID,52,VALID,0,
2009-12-29, 00:43:04,VALID,1002.3,VALID,0,VALID,95.1474,VALID,0,VALID,24.3636,VALID,52,VALID,0,
2009-12-29, 00:44:04,VALID,1002.28,VALID,0,VALID,95.0558,VALID,0.100563,VALID,24.3654,VALID,52,VALID,0,
2009-12-29, 00:45:04,VALID,1002.26,VALID,0,VALID,95.0101,VALID,0,VALID,24.3265,VALID,52,VALID,0,
2009-12-29, 00:46:04,VALID,1002.22,VALID,0,VALID,94.9567,VALID,0,VALID,24.2857,VALID,52,VALID,0,
2009-12-29, 00:47:04,VALID,1002.19,VALID,0,VALID,94.9109,VALID,0,VALID,24.2875,VALID,52,VALID,0,
2009-12-29, 00:48:04,VALID,1002.15,VALID,0,VALID,94.8651,VALID,0,VALID,24.2681,VALID,52,VALID,0,
2009-12-29, 00:49:04,VALID,1002.11,VALID,0,VALID,94.8499,VALID,0,VALID,24.2273,VALID,52,VALID,0,
2009-12-29, 00:50:04,VALID,1002.12,VALID,0,VALID,94.8117,VALID,0,VALID,24.2078,VALID,52,VALID,0,
2009-12-29, 00:51:04,VALID,1002.13,VALID,0,VALID,94.827,VALID,0,VALID,24.2078,VALID,52,VALID,0,
2009-12-29, 00:52:04,VALID,1002.09,VALID,0,VALID,94.827,VALID,0,VALID,24.2468,VALID,53,VALID,0,
2009-12-29, 00:53:04,VALID,1002.12,VALID,0,VALID,94.8499,VALID,0,VALID,24.2291,VALID,55,VALID,0,
2009-12-29, 00:54:04,VALID,1002.07,VALID,0,VALID,94.8575,VALID,0,VALID,24.2097,VALID,55,VALID,0,
2009-12-29, 00:55:04,VALID,1002.06,VALID,0,VALID,94.8651,VALID,0,VALID,24.1902,VALID,55,VALID,0,
2009-12-29, 00:56:04,VALID,1002.02,VALID,0,VALID,94.8804,VALID,0,VALID,24.1689,VALID,55,VALID,0,
2009-12-29, 00:57:04,VALID,1002,VALID,0,VALID,94.8956,VALID,0,VALID,24.1494,VALID,55,VALID,0,
2009-12-29, 00:58:04,VALID,1001.99,VALID,0,VALID,94.9338,VALID,0,VALID,24.2097,VALID,55,VALID,0,
2009-12-29, 00:59:04,VALID,1001.97,VALID,0,VALID,94.9567,VALID,0,VALID,24.1689,VALID,55,VALID,0,
2009-12-29, 01:00:04,VALID,1001.97,VALID,0,VALID,94.9719,VALID,0,VALID,24.1884,VALID,55,VALID,0,
2009-12-29, 01:01:04,VALID,1001.92,VALID,0,VALID,95.0024,VALID,0.100563,VALID,24.1689,VALID,55,VALID,0,
2009-12-29, 01:02:04,VALID,1001.91,VALID,0,VALID,94.9948,VALID,0,VALID,24.1494,VALID,55,VALID,0,
2009-12-29, 01:03:04,VALID,1001.91,VALID,0,VALID,95.0101,VALID,0,VALID,24.13,VALID,55,VALID,0,
2009-12-29, 01:04:04,VALID,1001.9,VALID,0,VALID,95.0024,VALID,0,VALID,24.13,VALID,55,VALID,0,
2009-12-29, 01:05:04,VALID,1001.9,VALID,0,VALID,95.033,VALID,0,VALID,24.1494,VALID,50,VALID,0,
2009-12-29, 01:06:04,VALID,1001.89,VALID,0,VALID,95.0558,VALID,0,VALID,24.1105,VALID,50,VALID,0,
2009-12-29, 01:07:04,VALID,1001.9,VALID,0,VALID,95.0711,VALID,0,VALID,24.1105,VALID,50,VALID,0,
2009-12-29, 01:08:04,VALID,1001.89,VALID,0,VALID,95.0787,VALID,0,VALID,24.091,VALID,49,VALID,0,
2009-12-29, 01:09:04,VALID,1001.86,VALID,0,VALID,95.094,VALID,0,VALID,24.091,VALID,49,VALID,0,
2009-12-29, 01:10:04,VALID,1001.83,VALID,0,VALID,95.1093,VALID,0,VALID,24.091,VALID,48,VALID,0,
2009-12-29, 01:11:04,VALID,1001.82,VALID,0,VALID,95.094,VALID,0,VALID,24.0716,VALID,48,VALID,0,
2009-12-29, 01:12:04,VALID,1001.8,VALID,0,VALID,95.1321,VALID,0,VALID,24.1123,VALID,18,VALID,0,
2009-12-29, 01:13:04,VALID,1001.77,VALID,0,VALID,95.1321,VALID,0,VALID,24.0716,VALID,12,VALID,0,
2009-12-29, 01:14:04,VALID,1001.77,VALID,0,VALID,95.1855,VALID,0,VALID,24.1123,VALID,12,VALID,0,
2009-12-29, 01:15:04,VALID,1001.78,VALID,0,VALID,95.1932,VALID,0,VALID,24.091,VALID,12,VALID,0,
2009-12-29, 01:16:04,VALID,1001.78,VALID,0,VALID,95.1932,VALID,0,VALID,24.091,VALID,12,VALID,0,
2009-12-29, 01:17:04,VALID,1001.75,VALID,0,VALID,95.2161,VALID,0,VALID,24.1105,VALID,12,VALID,0,
2009-12-29, 01:18:04,VALID,1001.74,VALID,0,VALID,95.2008,VALID,0,VALID,24.13,VALID,12,VALID,0,
2009-12-29, 01:19:04,VALID,1001.76,VALID,0,VALID,95.2389,VALID,0,VALID,24.13,VALID,12,VALID,0,
2009-12-29, 01:20:04,VALID,1001.72,VALID,0,VALID,95.2389,VALID,0,VALID,24.13,VALID,12,VALID,0,
2009-12-29, 01:21:04,VALID,1001.71,VALID,0,VALID,95.2618,VALID,0,VALID,24.13,VALID,12,VALID,0,
2009-12-29, 01:22:04,VALID,1001.65,VALID,0,VALID,95.2695,VALID,0,VALID,24.13,VALID,12,VALID,0,
2009-12-29, 01:23:04,VALID,1001.63,VALID,0,VALID,95.3,VALID,0,VALID,24.1689,VALID,12,VALID,0,
2009-12-29, 01:24:04,VALID,1001.58,VALID,0,VALID,95.2923,VALID,0,VALID,24.1689,VALID,12,VALID,0,
2009-12-29, 01:25:04,VALID,1001.54,VALID,0,VALID,95.3152,VALID,0.100563,VALID,24.1902,VALID,12,VALID,0,
2009-12-29, 01:26:04,VALID,1001.51,VALID,0,VALID,95.3229,VALID,0,VALID,24.1689,VALID,12,VALID,0,
2009-12-29, 01:27:04,VALID,1001.47,VALID,0,VALID,95.3381,VALID,0.100563,VALID,24.1689,VALID,12,VALID,0,
2009-12-29, 01:28:04,VALID,1001.43,VALID,0,VALID,95.3457,VALID,0,VALID,24.1476,VALID,12,VALID,0,
2009-12-29, 01:29:04,VALID,1001.42,VALID,0,VALID,95.3381,VALID,0,VALID,24.1707,VALID,12,VALID,0,
2009-12-29, 01:30:04,VALID,1001.41,VALID,0,VALID,95.3457,VALID,0,VALID,24.1707,VALID,12,VALID,0,
2009-12-29, 01:31:04,VALID,1001.38,VALID,0,VALID,95.3686,VALID,0,VALID,24.1707,VALID,11,VALID,0,
2009-12-29, 01:32:04,VALID,1001.38,VALID,0,VALID,95.3686,VALID,0,VALID,24.1513,VALID,11,VALID,0,
2009-12-29, 01:33:04,VALID,1001.38,VALID,0,VALID,95.3839,VALID,0,VALID,24.1531,VALID,11,VALID,0,
2009-12-29, 01:34:04,VALID,1001.39,VALID,0,VALID,95.3915,VALID,0,VALID,24.1513,VALID,11,VALID,0,
2009-12-29, 01:35:04,VALID,1001.34,VALID,0,VALID,95.3839,VALID,0,VALID,24.1707,VALID,11,VALID,0,
2009-12-29, 01:36:04,VALID,1001.34,VALID,0,VALID,95.422,VALID,0,VALID,24.1707,VALID,11,VALID,0,
2009-12-29, 01:37:04,VALID,1001.34,VALID,0,VALID,95.3839,VALID,0,VALID,24.1689,VALID,11,VALID,0,
2009-12-29, 01:38:04,VALID,1001.29,VALID,0,VALID,95.4144,VALID,0,VALID,24.192,VALID,11,VALID,0,
2009-12-29, 01:39:04,VALID,1001.29,VALID,0,VALID,95.4068,VALID,0,VALID,24.1707,VALID,11,VALID,0,
2009-12-29, 01:40:04,VALID,1001.25,VALID,0,VALID,95.4144,VALID,0,VALID,24.1513,VALID,11,VALID,0,
2009-12-29, 01:41:04,VALID,1001.2,VALID,0,VALID,95.4373,VALID,0,VALID,24.1513,VALID,10,VALID,0,
2009-12-29, 01:42:04,VALID,1001.21,VALID,0,VALID,95.4526,VALID,0,VALID,24.1531,VALID,2,VALID,0,
2009-12-29, 01:43:04,VALID,1001.15,VALID,0,VALID,95.4449,VALID,0,VALID,24.1513,VALID,2,VALID,0,
2009-12-29, 01:44:04,VALID,1001.14,VALID,0,VALID,95.4449,VALID,0,VALID,24.13,VALID,2,VALID,0,
2009-12-29, 01:45:04,VALID,1001.13,VALID,0,VALID,95.4678,VALID,0,VALID,24.1494,VALID,354,VALID,0,
2009-12-29, 01:46:04,VALID,1001.12,VALID,0,VALID,95.4602,VALID,0.100563,VALID,24.1884,VALID,281,VALID,0.457031,
2009-12-29, 01:47:04,VALID,1001.11,VALID,0,VALID,95.4602,VALID,0,VALID,24.2078,VALID,281,VALID,0,
2009-12-29, 01:48:04,VALID,1001.13,VALID,0,VALID,95.4831,VALID,0.100563,VALID,24.2681,VALID,281,VALID,0.00078125,
2009-12-29, 01:49:04,VALID,1001.13,VALID,0,VALID,95.4678,VALID,0,VALID,24.2662,VALID,281,VALID,0.175391,
2009-12-29, 01:50:04,VALID,1001.15,VALID,0,VALID,95.4907,VALID,0,VALID,24.2662,VALID,311,VALID,0.2125,
2009-12-29, 01:51:04,VALID,1001.14,VALID,0,VALID,95.4831,VALID,0,VALID,24.2662,VALID,329,VALID,0.370313,
2009-12-29, 01:52:04,VALID,1001.13,VALID,0,VALID,95.4754,VALID,0.100563,VALID,24.2875,VALID,344,VALID,0.516016,
2009-12-29, 01:53:04,VALID,1001.13,VALID,0,VALID,95.4983,VALID,0,VALID,24.2273,VALID,343,VALID,0.485938,
2009-12-29, 01:54:04,VALID,1001.15,VALID,0,VALID,95.4983,VALID,0.100563,VALID,24.2273,VALID,344,VALID,0.0363281,
2009-12-29, 01:55:04,VALID,1001.13,VALID,0,VALID,95.4754,VALID,0,VALID,24.2273,VALID,348,VALID,0,
2009-12-29, 01:56:04,VALID,1001.13,VALID,0,VALID,95.4983,VALID,0.100563,VALID,24.2078,VALID,3,VALID,0,
2009-12-29, 01:57:04,VALID,1001.13,VALID,0,VALID,95.4831,VALID,0.100563,VALID,24.2291,VALID,349,VALID,0,
2009-12-29, 01:58:04,VALID,1001.15,VALID,0,VALID,95.4602,VALID,0,VALID,24.1884,VALID,349,VALID,0,
2009-12-29, 01:59:04,VALID,1001.14,VALID,0,VALID,95.4831,VALID,0,VALID,24.1902,VALID,349,VALID,0,
2009-12-29, 02:00:04,VALID,1001.17,VALID,0,VALID,95.4831,VALID,0,VALID,24.1707,VALID,349,VALID,0,
2009-12-29, 02:01:04,VALID,1001.19,VALID,0,VALID,95.4831,VALID,0,VALID,24.1726,VALID,349,VALID,0,
2009-12-29, 02:02:04,VALID,1001.15,VALID,0,VALID,95.4754,VALID,0,VALID,24.1513,VALID,349,VALID,0,
2009-12-29, 02:03:04,VALID,1001.2,VALID,0,VALID,95.4907,VALID,0,VALID,24.1318,VALID,349,VALID,0,
2009-12-29, 02:04:04,VALID,1001.17,VALID,0,VALID,95.4754,VALID,0,VALID,24.1318,VALID,349,VALID,0,
2009-12-29, 02:05:04,VALID,1001.2,VALID,0,VALID,95.4526,VALID,0,VALID,24.1318,VALID,349,VALID,0,
2009-12-29, 02:06:04,VALID,1001.17,VALID,0,VALID,95.4526,VALID,0,VALID,24.1123,VALID,349,VALID,0,
2009-12-29, 02:07:04,VALID,1001.17,VALID,0,VALID,95.4678,VALID,0,VALID,24.1336,VALID,349,VALID,0,
2009-12-29, 02:08:04,VALID,1001.12,VALID,0,VALID,95.4831,VALID,0,VALID,24.1123,VALID,349,VALID,0,
2009-12-29, 02:09:04,VALID,1001.12,VALID,0,VALID,95.4526,VALID,0,VALID,24.1318,VALID,349,VALID,0,
2009-12-29, 02:10:04,VALID,1001.11,VALID,0,VALID,95.4678,VALID,0,VALID,24.1318,VALID,349,VALID,0,
2009-12-29, 02:11:04,VALID,1001.12,VALID,0,VALID,95.4602,VALID,0,VALID,24.1531,VALID,349,VALID,0,
2009-12-29, 02:12:04,VALID,1001.11,VALID,0,VALID,95.4754,VALID,0,VALID,24.1336,VALID,349,VALID,0,
2009-12-29, 02:13:04,VALID,1001.12,VALID,0,VALID,95.4602,VALID,0,VALID,24.1318,VALID,349,VALID,0,
2009-12-29, 02:14:04,VALID,1001.08,VALID,0,VALID,95.4754,VALID,0,VALID,24.0929,VALID,349,VALID,0,
2009-12-29, 02:15:04,VALID,1001.07,VALID,0,VALID,95.4678,VALID,0,VALID,24.0929,VALID,349,VALID,0,
2009-12-29, 02:16:04,VALID,1001.08,VALID,0,VALID,95.4907,VALID,0,VALID,24.0929,VALID,349,VALID,0,
2009-12-29, 02:17:04,VALID,1001.09,VALID,0,VALID,95.4754,VALID,0,VALID,24.1531,VALID,349,VALID,0,
2009-12-29, 02:18:04,VALID,1001.08,VALID,0,VALID,95.4754,VALID,0,VALID,24.1513,VALID,349,VALID,0,
2009-12-29, 02:19:04,VALID,1001.11,VALID,0,VALID,95.4754,VALID,0,VALID,24.1513,VALID,349,VALID,0,
2009-12-29, 02:20:04,VALID,1001.12,VALID,0,VALID,95.4831,VALID,0,VALID,24.1105,VALID,349,VALID,0,
2009-12-29, 02:21:04,VALID,1001.12,VALID,0,VALID,95.4983,VALID,0,VALID,24.1513,VALID,349,VALID,0,
2009-12-29, 02:22:04,VALID,1001.16,VALID,0,VALID,95.4754,VALID,0,VALID,24.1726,VALID,349,VALID,0,
2009-12-29, 02:23:04,VALID,1001.14,VALID,0,VALID,95.5136,VALID,0,VALID,24.1318,VALID,349,VALID,0,
2009-12-29, 02:24:04,VALID,1001.17,VALID,0,VALID,95.4907,VALID,0,VALID,24.1123,VALID,349,VALID,0,
2009-12-29, 02:25:04,VALID,1001.16,VALID,0,VALID,95.506,VALID,0,VALID,24.1123,VALID,349,VALID,0,
2009-12-29, 02:26:04,VALID,1001.25,VALID,0,VALID,95.4983,VALID,0,VALID,24.091,VALID,339,VALID,0,
2009-12-29, 02:27:04,VALID,1001.3,VALID,0,VALID,95.4983,VALID,0,VALID,24.1726,VALID,219,VALID,1.00742,
2009-12-29, 02:28:04,VALID,1001.28,VALID,0,VALID,95.5136,VALID,0,VALID,24.1513,VALID,140,VALID,0.592188,
2009-12-29, 02:29:04,VALID,1001.25,VALID,0,VALID,95.5212,VALID,0.100563,VALID,24.1123,VALID,220,VALID,0.138281,
2009-12-29, 02:30:04,VALID,1001.22,VALID,0,VALID,95.4983,VALID,0,VALID,24.091,VALID,284,VALID,0.432422,
2009-12-29, 02:31:04,VALID,1001.2,VALID,0,VALID,95.506,VALID,0,VALID,24.0503,VALID,312,VALID,0.553125,
2009-12-29, 02:32:04,VALID,1001.19,VALID,0,VALID,95.4907,VALID,0.100563,VALID,24.0716,VALID,311,VALID,0.176563,
2009-12-29, 02:33:04,VALID,1001.19,VALID,0,VALID,95.4907,VALID,0.100563,VALID,24.0716,VALID,311,VALID,0.103906,
2009-12-29, 02:34:04,VALID,1001.16,VALID,0,VALID,95.4754,VALID,0,VALID,24.0716,VALID,314,VALID,0.49375,
2009-12-29, 02:35:04,VALID,1001.18,VALID,0,VALID,95.4831,VALID,0.100563,VALID,24.091,VALID,347,VALID,0.580859,
2009-12-29, 02:36:04,VALID,1001.16,VALID,0,VALID,95.4602,VALID,0.100563,VALID,24.091,VALID,340,VALID,0.588672,
2009-12-29, 02:37:04,VALID,1001.17,VALID,0,VALID,95.4449,VALID,0.100563,VALID,24.0521,VALID,352,VALID,0.491406,
2009-12-29, 02:38:04,VALID,1001.2,VALID,0,VALID,95.4449,VALID,0.100563,VALID,24.0326,VALID,355,VALID,0.352734,
2009-12-29, 02:39:04,VALID,1001.2,VALID,0,VALID,95.4526,VALID,0.100563,VALID,24.0734,VALID,358,VALID,0.253906,
2009-12-29, 02:40:04,VALID,1001.21,VALID,0,VALID,95.4449,VALID,0,VALID,24.0326,VALID,358,VALID,0.0746094,
2009-12-29, 02:41:04,VALID,1001.19,VALID,0,VALID,95.4068,VALID,0.100563,VALID,24.0132,VALID,358,VALID,0.100781,
2009-12-29, 02:42:04,VALID,1001.19,VALID,0,VALID,95.3991,VALID,0,VALID,23.9937,VALID,358,VALID,0,
2009-12-29, 02:43:04,VALID,1001.18,VALID,0,VALID,95.3915,VALID,0,VALID,23.9955,VALID,358,VALID,0.368359,
2009-12-29, 02:44:04,VALID,1001.19,VALID,0,VALID,95.3763,VALID,0,VALID,23.9742,VALID,358,VALID,0.512109,
2009-12-29, 02:45:04,VALID,1001.17,VALID,0,VALID,95.361,VALID,0,VALID,23.9955,VALID,358,VALID,0.56875,
2009-12-29, 02:46:04,VALID,1001.16,VALID,0,VALID,95.3686,VALID,0,VALID,23.9548,VALID,358,VALID,0.375391,
2009-12-29, 02:47:04,VALID,1001.17,VALID,0,VALID,95.3763,VALID,0,VALID,23.9159,VALID,358,VALID,0.184375,
2009-12-29, 02:48:04,VALID,1001.17,VALID,0,VALID,95.3457,VALID,0,VALID,23.9159,VALID,358,VALID,0,
2009-12-29, 02:49:04,VALID,1001.17,VALID,0,VALID,95.3686,VALID,0,VALID,23.9159,VALID,358,VALID,0,
2009-12-29, 02:50:04,VALID,1001.17,VALID,0,VALID,95.3534,VALID,0,VALID,23.9159,VALID,358,VALID,0.132813,
2009-12-29, 02:51:04,VALID,1001.17,VALID,0,VALID,95.3534,VALID,0,VALID,23.9159,VALID,358,VALID,0,
2009-12-29, 02:52:04,VALID,1001.18,VALID,0,VALID,95.3457,VALID,0,VALID,23.8946,VALID,358,VALID,0,
2009-12-29, 02:53:04,VALID,1001.18,VALID,0,VALID,95.3457,VALID,0,VALID,23.9159,VALID,351,VALID,0.040625,
2009-12-29, 02:54:04,VALID,1001.12,VALID,0,VALID,95.3457,VALID,0,VALID,23.9371,VALID,351,VALID,0.524219,
2009-12-29, 02:55:04,VALID,1001.12,VALID,0,VALID,95.3381,VALID,0,VALID,23.9371,VALID,351,VALID,0.257031,
2009-12-29, 02:56:04,VALID,1001.09,VALID,0,VALID,95.3686,VALID,0,VALID,23.9584,VALID,351,VALID,0,
2009-12-29, 02:57:04,VALID,1001.05,VALID,0,VALID,95.3686,VALID,0,VALID,23.9177,VALID,351,VALID,0,
2009-12-29, 02:58:04,VALID,1001.04,VALID,0,VALID,95.361,VALID,0,VALID,23.8964,VALID,351,VALID,0,
2009-12-29, 02:59:04,VALID,1001.01,VALID,0,VALID,95.3457,VALID,0,VALID,23.8769,VALID,351,VALID,0,
2009-12-29, 03:00:04,VALID,1001,VALID,0,VALID,95.3534,VALID,0,VALID,23.8982,VALID,351,VALID,0,
2009-12-29, 03:01:04,VALID,1001.01,VALID,0,VALID,95.3686,VALID,0,VALID,23.8982,VALID,351,VALID,0,
2009-12-29, 03:02:04,VALID,1001,VALID,0,VALID,95.3534,VALID,0,VALID,23.8769,VALID,351,VALID,0,
2009-12-29, 03:03:04,VALID,1001,VALID,0,VALID,95.3763,VALID,0,VALID,23.8769,VALID,351,VALID,0,
2009-12-29, 03:04:04,VALID,1000.98,VALID,0,VALID,95.3991,VALID,0,VALID,23.8769,VALID,351,VALID,0,
2009-12-29, 03:05:04,VALID,1000.94,VALID,0,VALID,95.3839,VALID,0,VALID,23.8982,VALID,351,VALID,0,
2009-12-29, 03:06:04,VALID,1000.96,VALID,0,VALID,95.3686,VALID,0,VALID,23.8769,VALID,351,VALID,0,
2009-12-29, 03:07:04,VALID,1000.93,VALID,0,VALID,95.3839,VALID,0,VALID,23.8769,VALID,351,VALID,0,
2009-12-29, 03:08:04,VALID,1000.96,VALID,0,VALID,95.3839,VALID,0,VALID,23.8575,VALID,351,VALID,0.404297,
2009-12-29, 03:09:04,VALID,1000.95,VALID,0,VALID,95.4068,VALID,0,VALID,23.8167,VALID,351,VALID,0.341406,
2009-12-29, 03:10:04,VALID,1000.93,VALID,0,VALID,95.4068,VALID,0,VALID,23.8593,VALID,351,VALID,0.225,
2009-12-29, 03:11:04,VALID,1000.92,VALID,0,VALID,95.3915,VALID,0,VALID,23.8185,VALID,351,VALID,0.0878906,
2009-12-29, 03:12:04,VALID,1000.92,VALID,0,VALID,95.3991,VALID,0,VALID,23.8185,VALID,351,VALID,0,
2009-12-29, 03:13:04,VALID,1000.94,VALID,0,VALID,95.4144,VALID,0,VALID,23.7991,VALID,358,VALID,0,
2009-12-29, 03:14:04,VALID,1000.98,VALID,0,VALID,95.4144,VALID,0,VALID,23.8221,VALID,358,VALID,0,
2009-12-29, 03:15:04,VALID,1000.98,VALID,0,VALID,95.4068,VALID,0,VALID,23.8221,VALID,358,VALID,0,
2009-12-29, 03:16:04,VALID,1000.95,VALID,0,VALID,95.422,VALID,0,VALID,23.8009,VALID,358,VALID,0,
2009-12-29, 03:17:04,VALID,1000.96,VALID,0,VALID,95.422,VALID,0,VALID,23.8203,VALID,358,VALID,0,
2009-12-29, 03:18:04,VALID,1000.97,VALID,0,VALID,95.422,VALID,0,VALID,23.7796,VALID,358,VALID,0,
2009-12-29, 03:19:04,VALID,1001,VALID,0,VALID,95.4373,VALID,0,VALID,23.8185,VALID,358,VALID,0,
2009-12-29, 03:20:04,VALID,1000.97,VALID,0,VALID,95.4373,VALID,0,VALID,23.8203,VALID,7,VALID,0,
2009-12-29, 03:21:04,VALID,1000.95,VALID,0,VALID,95.4526,VALID,0,VALID,23.8203,VALID,7,VALID,0,
2009-12-29, 03:22:04,VALID,1000.94,VALID,0,VALID,95.4678,VALID,0,VALID,23.8203,VALID,7,VALID,0,
2009-12-29, 03:23:04,VALID,1000.96,VALID,0,VALID,95.4526,VALID,0,VALID,23.8185,VALID,7,VALID,0,
2009-12-29, 03:24:04,VALID,1000.95,VALID,0,VALID,95.4831,VALID,0,VALID,23.8398,VALID,7,VALID,0,
2009-12-29, 03:25:04,VALID,1000.97,VALID,0,VALID,95.4983,VALID,0,VALID,23.8593,VALID,7,VALID,0,
2009-12-29, 03:26:04,VALID,1001,VALID,0,VALID,95.4907,VALID,0,VALID,23.8982,VALID,7,VALID,0,
2009-12-29, 03:27:04,VALID,1000.99,VALID,0,VALID,95.4983,VALID,0,VALID,23.8982,VALID,7,VALID,0,
2009-12-29, 03:28:04,VALID,1000.99,VALID,0,VALID,95.4983,VALID,0,VALID,23.8982,VALID,7,VALID,0,
2009-12-29, 03:29:04,VALID,1000.98,VALID,0,VALID,95.5136,VALID,0,VALID,23.8575,VALID,7,VALID,0,
2009-12-29, 03:30:04,VALID,1000.98,VALID,0,VALID,95.5136,VALID,0,VALID,23.8575,VALID,7,VALID,0,
2009-12-29, 03:31:04,VALID,1000.98,VALID,0,VALID,95.5136,VALID,0.100563,VALID,23.8167,VALID,7,VALID,0,
2009-12-29, 03:32:04,VALID,1000.97,VALID,0,VALID,95.5212,VALID,0.100563,VALID,23.7973,VALID,7,VALID,0,
2009-12-29, 03:33:04,VALID,1001.01,VALID,0,VALID,95.5212,VALID,0.100563,VALID,23.838,VALID,7,VALID,0,
2009-12-29, 03:34:04,VALID,1000.97,VALID,0,VALID,95.5365,VALID,0.100563,VALID,23.8575,VALID,7,VALID,0,
2009-12-29, 03:35:04,VALID,1000.99,VALID,0,VALID,95.5517,VALID,0.100563,VALID,23.8575,VALID,7,VALID,0,
2009-12-29, 03:36:04,VALID,1001.02,VALID,0,VALID,95.5365,VALID,0,VALID,23.8575,VALID,7,VALID,0,
2009-12-29, 03:37:04,VALID,1000.99,VALID,0,VALID,95.567,VALID,0.100563,VALID,23.8556,VALID,7,VALID,0,
2009-12-29, 03:38:04,VALID,1000.99,VALID,0,VALID,95.5594,VALID,0.100563,VALID,23.838,VALID,7,VALID,0,
2009-12-29, 03:39:04,VALID,1001.02,VALID,0,VALID,95.567,VALID,0.100563,VALID,23.8575,VALID,7,VALID,0,
2009-12-29, 03:40:04,VALID,1000.98,VALID,0,VALID,95.5594,VALID,0.100563,VALID,23.8787,VALID,7,VALID,0,
2009-12-29, 03:41:04,VALID,1001.01,VALID,0,VALID,95.567,VALID,0.100563,VALID,23.8769,VALID,7,VALID,0,
2009-12-29, 03:42:04,VALID,1001.02,VALID,0,VALID,95.5746,VALID,0,VALID,23.9159,VALID,7,VALID,0,
2009-12-29, 03:43:04,VALID,1000.97,VALID,0,VALID,95.5899,VALID,0.100563,VALID,23.9371,VALID,7,VALID,0.441016,
2009-12-29, 03:44:04,VALID,1000.98,VALID,0,VALID,95.5822,VALID,0,VALID,23.8787,VALID,1,VALID,0.551953,
2009-12-29, 03:45:04,VALID,1000.94,VALID,0,VALID,95.5975,VALID,0,VALID,23.8593,VALID,357,VALID,0.535156,
2009-12-29, 03:46:04,VALID,1000.94,VALID,0,VALID,95.6051,VALID,0,VALID,23.8398,VALID,357,VALID,0.506641,
2009-12-29, 03:47:04,VALID,1000.95,VALID,0,VALID,95.6051,VALID,0,VALID,23.8398,VALID,357,VALID,0.636719,
2009-12-29, 03:48:04,VALID,1000.94,VALID,0,VALID,95.5899,VALID,0,VALID,23.7796,VALID,356,VALID,0.566406,
2009-12-29, 03:49:04,VALID,1000.94,VALID,0,VALID,95.6051,VALID,0,VALID,23.7796,VALID,342,VALID,0.646484,
2009-12-29, 03:50:04,VALID,1000.97,VALID,0,VALID,95.5975,VALID,0,VALID,23.8398,VALID,335,VALID,0.576172,
2009-12-29, 03:51:04,VALID,1001.02,VALID,0,VALID,95.628,VALID,0,VALID,23.9159,VALID,2,VALID,0.614453,
2009-12-29, 03:52:04,VALID,1001.02,VALID,0,VALID,95.6051,VALID,0,VALID,23.9742,VALID,2,VALID,0.278125,
2009-12-29, 03:53:04,VALID,1001.07,VALID,0,VALID,95.628,VALID,0,VALID,24.0345,VALID,2,VALID,0.0371094,